Regional Weather Roundup
Issued by NWS

Home | Current Version | Previous Version | Graphics & Text | Print | Product List | Glossary On
Versions: 1 2 3 4 5 6 7 8 9 10 11 12 13 14 15 16 17 18 19 20 21 22 23 24 25 26 27 28 29 30 31 32 33 34 35 36 37 38 39 40 41 42 43 44 45 46 47 48 49 50
000
ASUS43 KDTX 141701
RWRMI
MICHIGAN HOURLY REGIONAL WEATHER ROUNDUP
NATIONAL WEATHER SERVICE DETROIT/PONTIAC MI
1200 PM EST THU DEC 14 2017

NOTE: "FAIR" INDICATES FEW OR NO CLOUDS BELOW 12,000 FEET WITH NO
SIGNIFICANT WEATHER AND/OR OBSTRUCTION TO VISIBILITY.

MIZ047>049-052>055-059>063-066>070-074>076-081>083-141800-
SOUTHEAST LOWER MICHIGAN

CITY           SKY/WX    TMP DP  RH WIND       PRES   REMARKS
ADRIAN         SUNNY     18   5  57 N5        30.04F WCI  11
ALMA           SUNNY     15   8  72 W5        30.03F WCI   8
ANN ARBOR      SUNNY     18   5  57 NW6       30.02S WCI  10
BAD AXE        SUNNY     15   6  67 NW8       29.99R WCI   4
CARO           SUNNY     11   4  72 W8        30.02R WCI  -1
DETROIT CITY   SUNNY     18   4  54 NW7       30.03R WCI   9
DETROIT        MOSUNNY   20   2  45 W5        30.04S WCI  13
FLINT          SUNNY     12   3  67 NW7       30.03F WCI   1
GROSSE ILE     SUNNY     18   4  55 NW5       30.03S WCI  11
HILLSDALE      SUNNY     19   5  53 CALM      30.01S
HOWELL         SUNNY     14   6  70 W6        30.01F WCI   5

CITY           SKY/WX    TMP DP  RH WIND       PRES   REMARKS
JACKSON        SUNNY     16   5  62 SW5       30.02S WCI   9
LAMBERTVILLE   SUNNY     17   5  59 NW5       30.05F WCI   9
LANSING        SUNNY     15   7  70 CALM      30.03F
LAPEER         FAIR      14   3  63 W8        30.00F WCI   3
MASON          SUNNY     16   3  56 CALM      30.02F
MONROE         SUNNY     17   2  51 W6        30.04S WCI   8
MT. CLEMENS    MOSUNNY   16   5  62 NW6       30.01R WCI   7
PONTIAC        MOSUNNY   16   2  54 NW8       29.99S WCI   5
PORT HOPE        N/A     18   7  62 NW12      29.96R WCI   5
PORT HURON     SUNNY     16   7  67 W9        30.00S WCI   4
TRI CITIES     SUNNY     10   5  80 SW12      30.04R WCI  -5
MIDLAND        FAIR      16   7  67 SW5       30.03S WCI   9
TROY           SUNNY     19   2  46 CALM      30.03S
SAGINAW HB     SUNNY     12   5  73 SW7       30.04S WCI   2
$$
MIZ043>046-050>051-056>058-064>065-071>073-077>080-141800-
SOUTHWEST LOWER MICHIGAN

CITY           SKY/WX    TMP DP  RH WIND       PRES   REMARKS
BATTLE CREEK   SUNNY     20   8  60 CALM      30.03F
BENTON HARBOR  CLOUDY    20  10  65 S9        30.07R HAZE    WCI   9
BIG RAPIDS     FLURRIES  14  10  85 CALM      29.99F
COLDWATER      SUNNY     18   7  62 CALM      30.03F
HOLLAND        LGT SNOW  18  12  77 S7        30.05S WCI   9
GRAND RAPIDS   FLURRIES  20  10  65 CALM      30.03S
IONIA          CLOUDY    15   7  71 S3        30.02F
LUDINGTON      FLURRIES  24  15  70 NW8       30.01F WCI  14
MARSHALL       SUNNY     17   5  59 CALM      30.03S
MOUNT PLEASANT SUNNY     17   7  67 SW7       30.01S WCI   7
MUSKEGON       LGT SNOW  19  13  77 SE5       30.04F WCI  12
SOUTH HAVEN    CLOUDY    21  12  67 S6        30.06S WCI  13
$$
MIZ016>042-141800-
NORTHERN LOWER MICHIGAN

CITY           SKY/WX    TMP DP  RH WIND       PRES   REMARKS
ALPENA         CLOUDY    17   9  70 W10       29.96R WCI   5
BEAVER ISLAND  FLURRIES  22  13  70 W5        29.95F WCI  15
BELLAIRE       LGT SNOW  17  15  93 CALM      29.99S
CADILLAC       FLURRIES  20  12  72 W8        29.94S WCI  10
CHARLEVOIX     CLOUDY    22  14  71 NW6       29.99F WCI  14
FRANKFORT      FLURRIES  24  15  68 W8        30.00S WCI  16
GRAYLING       FLURRIES  16   8  70 W7        29.95S WCI   6
HARBOR SPRINGS CLOUDY    20  10  64 NW5       29.96S WCI  13
HOUGHTON LAKE  PTSUNNY   12   7  80 SW7       29.96S WCI   1
MANISTEE       LGT SNOW  22  17  81 VRB3      30.01S
OSCODA         SUNNY     15   5  64 N9        29.98S WCI   3
PELLSTON       CLOUDY    19  11  70 NW6       29.96F WCI  11
ROGERS CITY    LGT SNOW  17  11  77 W10       29.96S WCI   4
TRAVERSE CITY  FLURRIES  22  14  71 W6        29.98S WCI  14
$$
MIZ007>008-015-141800-
EASTERN UPPER MICHIGAN

CITY           SKY/WX    TMP DP  RH WIND       PRES   REMARKS
KINROSS        LGT SNOW   8   3  80 CALM      29.94F
MACKINAC ISLAN CLOUDY    19  10  67 W8        29.94F WCI   9
NEWBERRY       CLOUDY    16  13  89 SW5       29.92F WCI   9
S. S. MARIE    MIX PCPN   2  -3  80 SE7       29.93F WCI -11
MUNISING         N/A     20  14  77 W7        29.94F WCI  11
$$
MIZ004>006-011>014-085-141800-
CENTRAL UPPER MICHIGAN

CITY           SKY/WX    TMP DP  RH WIND       PRES   REMARKS
MANISTIQUE     FLURRIES  17   8  69 W9        29.96F WCI   6
ESCANABA       SUNNY     19   8  62 W9        29.99F WCI   8
MENOMINEE      SUNNY     20  14  77 W5        30.03F WCI  13
SAWYER-GWINN   MOSUNNY   14   9  79 NW8       29.93F WCI   3
$$
MIZ001>003-009>011-084-141800-
WESTERN UPPER MICHIGAN

CITY           SKY/WX    TMP DP  RH WIND       PRES   REMARKS
IRON MOUNTAIN  MOSUNNY   18  10  71 VRB5      29.94F WCI  11
HOUGHTON       MOSUNNY   16   6  65 NW14      29.92S WCI   2
COPPER HARBOR    N/A     20  11  68 N20       29.94F WCI   4
IRONWOOD       FLURRIES  16  11  80 SW8       29.96F WCI   5
$$

ABBREVIATIONS USED IN REMARKS
   TC - TEMPERATURE IN CELSIUS
  WCI - WIND CHILL INDEX
   HX - HEAT INDEX
  VSB - VISIBILITY





USA.gov is the U.S. government's official web portal to all federal, state and local government web resources and services.